Weather History for Topeka, KS

Change the Weather History Date:

Sunday, October 9, 2011

  Actual Average Record
Temperature  
Mean Temperature 73 °F 59 °F  
Max Temperature 84 °F 71 °F 92 °F (1954)
Min Temperature 61 °F 47 °F 25 °F (2000)
Degree Days  
Heating Degree Days 0 7  
Month to date heating degree days 14 57  
Since 1 July heating degree days 95 124  
Cooling Degree Days 8 1  
Month to date cooling degree days 44 15  
Year to date cooling degree days 1918 1408  
Growing Degree Days 23 (Base 50)    
Moisture  
Dew Point 56 °F    
Average Humidity 64    
Maximum Humidity 93    
Minimum Humidity 34    
Precipitation  
Precipitation 0.00 in 0.09 in 3.34 in (1985)
Month to date precipitation 0.00 1.00  
Year to date precipitation 24.39 31.23  
Snow  
Snow 0.00 in 0.00 in 0.80 in (1970)
Month to date snowfall 0.0 0.0  
Year to date snowfall 38.5 11.3  
Since 1 July snowfall 0.0 0.0  
Snow Depth 0.00 in    
Sea Level Pressure  
Sea Level Pressure 30.07 in    
Wind  
Wind Speed 10 mph (SSE)    
Max Wind Speed 22 mph    
Max Gust Speed 30 mph    
Visibility 10 miles    
Events      
T = Trace of Precipitation, MM = Missing Value Source: NWS Daily Summary

Daily Weather History Graph

Daily Weather History Graph

Search for Another Location

Airport:

Trip Planner

Search our weather history database for the weather conditions in past years. The results will help you decide how hot, cold, wet, or windy it might be!

Date:

Astronomy

Oct. 09, 2011 Rise Set
Actual Time 7:25 AM CDT 6:53 PM CDT
Civil Twilight 6:59 AM CDT 7:19 PM CDT
Nautical Twilight 6:28 AM CDT 7:50 PM CDT
Astronomical Twilight 5:57 AM CDT 8:21 PM CDT
Moon 5:30 PM CDT (10/9) 5:12 AM CDT (10/9)
Length of Visible Light 12h 20m
Length of Day
11h 27m
Waxing Gibbous, 95% of the Moon is Illuminated
Oct 9
Waxing Gibbous
Oct 11
Full
Oct 19
Last Quarter
Oct 26
New
Nov 2
First Quarter

Hourly Weather History & Observations

Time (CDT) Temp. Heat Index Dew Point Humidity Pressure Visibility Wind Dir Wind Speed Gust Speed Precip Events Conditions
12:53 AM 62.1 °F - 59.0 °F 90% 30.09 in 10.0 mi Calm Calm - N/A   Clear
1:53 AM 66.0 °F - 55.0 °F 68% 30.09 in 10.0 mi SSE 5.8 mph - N/A   Clear
2:53 AM 66.0 °F - 55.0 °F 68% 30.10 in 10.0 mi SSE 3.5 mph - N/A   Clear
3:53 AM 63.0 °F - 55.0 °F 75% 30.08 in 10.0 mi SE 5.8 mph - N/A   Clear
4:53 AM 64.0 °F - 55.0 °F 73% 30.09 in 10.0 mi SE 8.1 mph - N/A   Partly Cloudy
5:53 AM 64.9 °F - 55.0 °F 70% 30.10 in 10.0 mi SE 8.1 mph - N/A   Scattered Clouds
6:53 AM 64.9 °F - 55.0 °F 70% 30.11 in 10.0 mi SE 10.4 mph - N/A   Scattered Clouds
7:53 AM 64.9 °F - 55.0 °F 70% 30.11 in 10.0 mi SSE 9.2 mph - N/A   Clear
8:53 AM 68.0 °F - 55.9 °F 65% 30.12 in 10.0 mi SSE 11.5 mph - N/A   Clear
9:53 AM 73.0 °F - 57.0 °F 57% 30.12 in 10.0 mi SSE 16.1 mph 21.9 mph N/A   Clear
10:53 AM 77.0 °F - 57.9 °F 52% 30.10 in 10.0 mi SSE 13.8 mph 21.9 mph N/A   Clear
11:53 AM 79.0 °F - 57.0 °F 47% 30.09 in 10.0 mi South 17.3 mph 28.8 mph N/A   Clear
12:53 PM 80.1 °F 80.4 °F 57.0 °F 45% 30.07 in 10.0 mi SSE 12.7 mph - N/A   Clear
1:53 PM 84.0 °F 82.6 °F 54.0 °F 35% 30.03 in 10.0 mi SSE 20.7 mph 27.6 mph N/A   Mostly Cloudy
2:53 PM 82.9 °F 81.8 °F 53.1 °F 36% 30.01 in 10.0 mi SSE 16.1 mph 25.3 mph N/A   Mostly Cloudy
3:53 PM 82.9 °F 81.8 °F 53.1 °F 36% 30.00 in 10.0 mi SSE 15.0 mph - N/A   Partly Cloudy
4:53 PM 81.0 °F - 50.0 °F 34% 30.00 in 10.0 mi SSE 18.4 mph 27.6 mph N/A   Mostly Cloudy
5:53 PM 80.1 °F - 51.1 °F 36% 30.00 in 10.0 mi SE 16.1 mph 21.9 mph N/A   Clear
6:53 PM 77.0 °F - 50.0 °F 39% 30.01 in 10.0 mi SE 12.7 mph - N/A   Clear
7:53 PM 75.0 °F - 51.1 °F 43% 30.03 in 10.0 mi West 4.6 mph - N/A   Mostly Cloudy
8:53 PM 68.0 °F - 61.0 °F 78% 30.05 in 10.0 mi West 6.9 mph - N/A   Overcast
9:53 PM 66.0 °F - 60.1 °F 81% 30.06 in 10.0 mi NW 5.8 mph - N/A   Mostly Cloudy
10:53 PM 64.0 °F - 60.1 °F 87% 30.06 in 10.0 mi Calm Calm - N/A   Partly Cloudy
11:53 PM 63.0 °F - 60.1 °F 90% 30.06 in 10.0 mi NNW 3.5 mph - N/A   Partly Cloudy